sat.trackr.live / text

‹ back to catalog

STARLINK-34126

NORAD 64083 · 2025-107V

PAYLOAD ACTIVE UNKNOWN

§ Identity

Operator
Country
US
Launch date
2025-05-21
Launch site
AFETR
Launch vehicle
Mass (kg)
RCS (m²)

Purposes: comms

External: N2YO · Heavens-Above · Gunter

§ Orbital elements

Epoch: 2026-05-25T05:31:30.283104Z

Period
94.27 min
Inclination
42.9986°
Eccentricity
0.0000450
Mean motion
15.27603872 rev/d
Perigee alt
482.7 km
Apogee alt
483.3 km
Semi-major
6,861.1 km
B*
5.2169e-4
RAAN
129.5180°
Arg perigee
300.0458°
Mean anomaly
60.0349°
Rev number
5,673

§ Raw data

STARLINK-341261 64083U 25107V   26145.23021161  .00014132  00000+0  52169-3 0  99962 64083  42.9986 129.5180 0000450 300.0458  60.0349 15.27603872 56730

JSON: /api/v1/satellites/64083 · /tle

For live sub-satellite position, see the globe view (requires WebGL).

§ Visibility from observer

Set your observer location to see the next 7 days of passes ≥ 10°. The values pass through the URL so the page stays shareable.

No JS? Fill the form by hand. The geolocation button needs JavaScript.